Location: Falkner
(32.6954°N, 86.0502°W)
Time: 11:43:02
(UTC+00:00)

Cosmos 1244 Rocket - Pass Details

Date: 29 October 2020
Orbit: 954 x 997 km, 82.9° (Epoch: 04 December)

Event Time Altitude Azimuth Distance (km) Brightness Sun altitude
Rises 23:37:32 0° 355° (N) 3,663 7.5 -9.4°
Reaches altitude 10° 23:40:03 10° 357° (N) 2,719 6.8 -9.9°
Maximum altitude 23:46:17 80° 84° (E) 995 4.5 -11.2°
Drops below altitude 10° 23:52:34 10° 172° (S) 2,733 6.9 -12.5°
Sets 23:55:05 0° 173° (S) 3,684 7.5 -13.1°
